TimeEDT,TemperatureF,Dew PointF,Humidity,Sea Level PressureIn,VisibilityMPH,Wind Direction,Wind SpeedMPH,Gust SpeedMPH,PrecipitationIn,Events,Conditions,WindDirDegrees,DateUTC
12:16 AM,32.0,24.8,75,29.67,10.0,NNE,15.0,21.9,N/A,,Scattered Clouds,30,2013-03-25 04:16:00
12:37 AM,32.0,26.6,80,29.66,10.0,NNE,17.3,24.2,N/A,,Overcast,30,2013-03-25 04:37:00
12:57 AM,32.0,26.6,80,29.66,10.0,NNE,13.8,19.6,N/A,,Overcast,30,2013-03-25 04:57:00
1:17 AM,32.0,26.6,80,29.66,10.0,NE,12.7,18.4,N/A,,Overcast,40,2013-03-25 05:17:00
1:37 AM,32.0,26.6,80,29.65,10.0,NNE,10.4,17.3,N/A,,Overcast,30,2013-03-25 05:37:00
1:57 AM,32.0,26.6,80,29.65,10.0,NE,13.8,17.3,N/A,,Overcast,40,2013-03-25 05:57:00
2:17 AM,32.0,26.6,80,29.64,10.0,NE,11.5,-,N/A,,Overcast,40,2013-03-25 06:17:00
2:37 AM,32.0,26.6,80,29.64,10.0,NE,15.0,19.6,N/A,,Overcast,40,2013-03-25 06:37:00
2:57 AM,32.0,26.6,80,29.63,10.0,NE,15.0,20.7,N/A,,Overcast,40,2013-03-25 06:57:00
3:17 AM,32.0,26.6,80,29.63,10.0,NE,17.3,21.9,N/A,,Overcast,40,2013-03-25 07:17:00
3:36 AM,30.2,26.6,86,29.63,10.0,NE,11.5,-,N/A,,Overcast,40,2013-03-25 07:36:00
3:57 AM,30.2,26.6,86,29.62,10.0,NE,16.1,20.7,N/A,,Overcast,40,2013-03-25 07:57:00
4:17 AM,30.2,26.6,86,29.62,10.0,NNE,13.8,19.6,N/A,,Overcast,30,2013-03-25 08:17:00
4:37 AM,30.2,26.6,86,29.62,10.0,NE,11.5,-,N/A,,Overcast,40,2013-03-25 08:37:00
4:57 AM,30.2,26.6,86,29.61,10.0,NNE,13.8,-,N/A,,Overcast,30,2013-03-25 08:57:00
5:17 AM,30.2,26.6,86,29.61,10.0,NNE,12.7,-,N/A,,Mostly Cloudy,30,2013-03-25 09:17:00
5:37 AM,30.2,26.6,86,29.61,10.0,NNE,11.5,18.4,N/A,,Mostly Cloudy,30,2013-03-25 09:37:00
5:57 AM,30.2,26.6,86,29.60,10.0,NNE,13.8,18.4,N/A,,Overcast,30,2013-03-25 09:57:00
6:17 AM,30.2,26.6,86,29.60,10.0,NNE,12.7,-,N/A,,Mostly Cloudy,30,2013-03-25 10:17:00
6:37 AM,30.2,26.6,86,29.60,10.0,NNE,16.1,19.6,N/A,,Mostly Cloudy,30,2013-03-25 10:37:00
6:57 AM,30.2,26.6,86,29.60,10.0,NNE,12.7,19.6,N/A,,Overcast,30,2013-03-25 10:57:00
7:17 AM,30.2,26.6,86,29.61,10.0,NNE,15.0,19.6,N/A,,Overcast,30,2013-03-25 11:17:00
7:37 AM,30.2,26.6,86,29.61,10.0,NNE,10.4,19.6,N/A,,Overcast,30,2013-03-25 11:37:00
7:57 AM,30.2,26.6,86,29.61,10.0,NNE,13.8,25.3,N/A,,Overcast,30,2013-03-25 11:57:00
8:17 AM,32.0,26.6,80,29.62,10.0,NE,12.7,20.7,N/A,,Overcast,40,2013-03-25 12:17:00
8:37 AM,32.0,26.6,80,29.62,10.0,NE,17.3,24.2,N/A,,Overcast,40,2013-03-25 12:37:00
8:57 AM,32.0,26.6,80,29.63,10.0,NNE,16.1,20.7,N/A,,Overcast,30,2013-03-25 12:57:00
9:17 AM,32.0,26.6,80,29.63,10.0,NNE,13.8,23.0,N/A,,Overcast,30,2013-03-25 13:17:00
9:37 AM,32.0,26.6,80,29.63,10.0,NNE,16.1,23.0,N/A,,Overcast,30,2013-03-25 13:37:00
9:57 AM,32.0,26.6,80,29.63,10.0,NNE,13.8,23.0,N/A,,Overcast,30,2013-03-25 13:57:00
10:17 AM,32.0,26.6,80,29.63,10.0,NNE,13.8,20.7,N/A,,Overcast,20,2013-03-25 14:17:00
10:37 AM,32.0,26.6,80,29.63,10.0,NNE,12.7,21.9,N/A,,Overcast,20,2013-03-25 14:37:00
10:57 AM,32.0,26.6,80,29.64,10.0,NNE,16.1,24.2,N/A,,Overcast,30,2013-03-25 14:57:00
11:17 AM,32.0,26.6,80,29.64,10.0,NNE,16.1,21.9,N/A,,Overcast,30,2013-03-25 15:17:00
11:37 AM,32.0,26.6,80,29.65,10.0,NNE,16.1,24.2,N/A,,Overcast,20,2013-03-25 15:37:00
11:57 AM,33.8,26.6,75,29.65,10.0,NNE,15.0,24.2,N/A,,Overcast,30,2013-03-25 15:57:00
12:17 PM,33.8,26.6,75,29.65,10.0,NNE,16.1,26.5,N/A,,Overcast,30,2013-03-25 16:17:00
12:37 PM,33.8,26.6,75,29.65,10.0,North,13.8,21.9,N/A,,Overcast,10,2013-03-25 16:37:00
12:57 PM,35.6,26.6,70,29.66,10.0,NNE,15.0,20.7,N/A,,Overcast,20,2013-03-25 16:57:00
1:17 PM,35.6,26.6,70,29.66,10.0,NNE,17.3,25.3,N/A,,Overcast,20,2013-03-25 17:17:00
1:37 PM,35.6,26.6,70,29.66,10.0,NNE,16.1,23.0,N/A,,Overcast,20,2013-03-25 17:37:00
1:57 PM,37.4,28.4,70,29.67,10.0,NE,20.7,28.8,N/A,,Mostly Cloudy,50,2013-03-25 17:57:00
2:17 PM,37.4,26.6,65,29.67,10.0,North,12.7,21.9,N/A,,Mostly Cloudy,10,2013-03-25 18:17:00
2:37 PM,37.4,28.4,70,29.67,10.0,NE,15.0,20.7,N/A,,Overcast,40,2013-03-25 18:37:00
2:57 PM,37.4,28.4,70,29.67,10.0,NNE,11.5,24.2,N/A,,Overcast,20,2013-03-25 18:57:00
3:17 PM,37.4,28.4,70,29.68,10.0,North,16.1,23.0,N/A,,Overcast,10,2013-03-25 19:17:00
3:37 PM,37.4,28.4,70,29.69,10.0,North,15.0,20.7,N/A,,Overcast,10,2013-03-25 19:37:00
3:57 PM,37.4,28.4,70,29.69,10.0,North,12.7,21.9,N/A,,Overcast,360,2013-03-25 19:57:00
4:17 PM,37.4,28.4,70,29.70,10.0,North,12.7,18.4,N/A,,Overcast,350,2013-03-25 20:17:00
4:37 PM,37.4,30.2,75,29.71,10.0,North,13.8,21.9,N/A,,Overcast,10,2013-03-25 20:37:00
4:57 PM,37.4,30.2,75,29.71,10.0,North,12.7,20.7,N/A,,Overcast,10,2013-03-25 20:57:00
5:17 PM,37.4,30.2,75,29.72,10.0,North,9.2,18.4,N/A,,Overcast,360,2013-03-25 21:17:00
5:37 PM,37.4,30.2,75,29.73,10.0,NNE,13.8,20.7,N/A,,Overcast,20,2013-03-25 21:37:00
5:57 PM,37.4,30.2,75,29.74,10.0,North,10.4,23.0,N/A,,Overcast,360,2013-03-25 21:57:00
6:17 PM,35.6,30.2,81,29.75,10.0,North,12.7,18.4,N/A,,Scattered Clouds,360,2013-03-25 22:17:00
6:37 PM,35.6,30.2,81,29.76,10.0,North,11.5,20.7,N/A,,Clear,10,2013-03-25 22:37:00
6:57 PM,35.6,30.2,81,29.77,10.0,North,11.5,16.1,N/A,,Mostly Cloudy,350,2013-03-25 22:57:00
7:17 PM,35.6,30.2,81,29.77,10.0,North,10.4,20.7,N/A,,Overcast,350,2013-03-25 23:17:00
7:37 PM,35.6,30.2,81,29.79,10.0,North,11.5,16.1,N/A,,Overcast,360,2013-03-25 23:37:00
7:57 PM,35.6,30.2,81,29.79,10.0,North,10.4,16.1,N/A,,Mostly Cloudy,360,2013-03-25 23:57:00
8:16 PM,35.6,30.2,81,29.80,10.0,North,6.9,-,N/A,,Mostly Cloudy,350,2013-03-26 00:16:00
8:37 PM,35.6,30.2,81,29.81,10.0,North,10.4,-,N/A,,Overcast,350,2013-03-26 00:37:00
8:57 PM,35.6,30.2,81,29.82,10.0,North,10.4,16.1,N/A,,Overcast,350,2013-03-26 00:57:00
9:17 PM,35.6,30.2,81,29.84,10.0,North,6.9,-,N/A,,Overcast,360,2013-03-26 01:17:00
9:37 PM,35.6,30.2,81,29.84,10.0,North,6.9,-,N/A,,Overcast,350,2013-03-26 01:37:00
9:57 PM,35.6,30.2,81,29.85,10.0,NNW,5.8,-,N/A,,Overcast,340,2013-03-26 01:57:00
10:17 PM,35.6,30.2,81,29.86,10.0,NNW,4.6,-,N/A,,Overcast,340,2013-03-26 02:17:00
10:37 PM,35.6,30.2,81,29.86,10.0,NNW,5.8,-,N/A,,Overcast,340,2013-03-26 02:37:00
10:57 PM,35.6,30.2,81,29.86,10.0,NNW,4.6,-,N/A,,Overcast,330,2013-03-26 02:57:00
11:17 PM,35.6,30.2,81,29.86,10.0,NNW,5.8,-,N/A,,Overcast,340,2013-03-26 03:17:00
11:37 PM,35.6,30.2,81,29.87,10.0,NW,5.8,-,N/A,,Overcast,320,2013-03-26 03:37:00
11:57 PM,33.8,30.2,87,29.87,10.0,NW,6.9,-,N/A,,Overcast,320,2013-03-26 03:57:00